Location: Clanezzo
(45.7500°N, 9.6000°E)
Time: 03:11:28
(UTC+00:00)

Cosmos 1833 - Pass Details

Date: 12 May 2021
Orbit: 833 x 865 km, 70.9° (Epoch: 18 June)

Event Time Altitude Azimuth Distance (km) Brightness Sun altitude
Rises 22:47:36 0° 334° (NNW) 3,443 8.6 -25.5°
Reaches altitude 10° 22:50:04 10° 337° (NNW) 2,506 7.6 -25.6°
Maximum altitude 22:55:50 73° 62° (ENE) 904 4.3 -25.7°
Enters shadow 22:56:50 59° 121° (ESE) 990 4.3 -25.7°
